This demonstration page uses our WeatherBlox Daily Observations layout. Learn more.

Left ArrowRight Arrow

47.50024, -111.30081

Hourly Observations for April 7, 2018

Temp ( °F °C ) Dew Point ( °F °C ) Humidity (%) Winds ( mph kmh ) Pressure ( in mb ) Visibility ( mi km ) Precip ( " mm )
12:53 am 00:53 Clear 12 -11.1 10 -12.2 92 92 NNE 5 7 30.17 1022 10 16 0.00 0.00
1:53 am 01:53 Clear 11 -11.7 9 -12.8 92 92 Calm 30.17 1022 10 16 0.00 0.00
2:53 am 02:53 Clear 10 -12.2 7 -13.9 87 87 N 3 6 30.15 1021 10 16 0.00 0.00
3:53 am 03:53 Clear 7 -13.9 6 -14.4 96 96 W 3 6 30.14 1021 10 16 0.00 0.00
4:53 am 04:53 Clear 9 -12.8 6 -14.4 88 88 Calm 30.12 1020 10 16 0.00 0.00
5:53 am 05:53 Clear 8 -13.3 5 -15 87 87 Calm 30.09 1019 10 16 0.00 0.00
6:53 am 06:53 Sunny 8 -13.3 6 -14.4 92 92 Calm 30.06 1018 10 16 0.00 0.00
7:22 am 07:22 Partly Cloudy 9 -12.8 6 -14.4 88 88 Calm 30.15 1021 10 16 0.00 0.00
7:34 am 07:34 Mostly Cloudy 10 -12.2 7 -13.9 87 87 Calm 30.12 1020 10 16 0.00 0.00
7:53 am 07:53 Mostly Cloudy 12 -11.1 9 -12.8 87 87 Calm 30.03 1017 10 16 0.00 0.00
8:03 am 08:03 Mostly Sunny 12 -11.1 10 -12.2 92 92 Calm 30.12 1020 10 16 0.00 0.00
8:24 am 08:24 Mostly Cloudy with Mist and Fog 13 -10.6 11 -11.7 92 92 NE 6 9 30.09 1019 2 3 0.00 0.00
8:29 am 08:29 Partly Cloudy with Mist and Fog 13 -10.6 11 -11.7 92 92 NE 5 7 30.06 1018 3 5 0.00 0.00
8:53 am 08:53 Sunny 13 -10.6 10 -12.2 88 88 N 3 6 30.00 1016 10 16 0.00 0.00
9:53 am 09:53 Sunny 16 -8.9 14 -10 92 92 Calm 29.98 1015 10 16 0.00 0.00
10:53 am 10:53 Sunny 17 -8.3 14 -10 88 88 Calm 29.94 1014 10 16 0.00 0.00
11:53 am 11:53 Sunny 21 -6.1 16 -8.9 81 81 ENE 6 9 29.91 1013 10 16 0.00 0.00
12:53 pm 12:53 Sunny 23 -5 17 -8.3 78 78 ENE 9 15 29.83 1010 10 16 0.00 0.00
1:53 pm 13:53 Partly Cloudy 26 -3.3 18 -7.8 71 71 NNE 7 11 29.79 1009 10 16 0.00 0.00
2:53 pm 14:53 Cloudy 26 -3.3 19 -7.2 75 75 NNE 3 6 29.75 1007 10 16 0.00 0.00
3:53 pm 15:53 Cloudy 26 -3.3 20 -6.7 78 78 N 6 9 29.72 1007 10 16 0.00 0.00
4:43 pm 16:43 Cloudy with Light Snow 26 -3.3 22 -5.6 84 84 NNW 5 7 29.68 1005 2 2 0.01 0.25
4:48 pm 16:48 Cloudy with Light Snow 27 -3 21 -6 80 80 NW 6 9 29.68 1005 1 2 0.01 0.25
4:53 pm 16:53 Cloudy with Light Snow 26 -3.3 22 -5.6 84 84 NW 8 13 29.71 1006 1 1 0.01 0.25
5:23 pm 17:23 Mostly Cloudy with Snow 25 -3.9 23 -5 92 92 WNW 9 15 29.68 1005 0 0 0.03 0.76
5:53 pm 17:53 Cloudy with Light Snow 26 -3.3 24 -4.4 92 92 W 10 17 29.73 1007 1 2 0.07 1.78
5:58 pm 17:58 Cloudy with Light Snow 26 -3.3 24 -4.4 92 92 W 9 15 29.71 1006 2 3 0.00 0.03
6:03 pm 18:03 Cloudy with Light Snow 26 -3.3 24 -4.4 92 92 W 13 20 29.71 1006 3 5 0.00 0.03
6:08 pm 18:08 Cloudy with Light Snow 26 -3.3 24 -4.4 92 92 W 14 22 29.71 1006 5 8 0.00 0.03
6:18 pm 18:18 Cloudy with Mist and Fog 26 -3.3 24 -4.4 92 92 WSW 15 24 29.74 1007 6 10 0.00 0.03
6:53 pm 18:53 Cloudy 25 -3.9 24 -4.4 96 96 SW 12 19 29.76 1008 7 11 0.00 0.03
7:53 pm 19:53 Cloudy 25 -3.9 23 -5 92 92 W 12 19 29.76 1008 10 16 0.00 0.00
8:53 pm 20:53 Cloudy 23 -5 20 -6.7 88 88 WNW 6 9 29.75 1007 10 16 0.00 0.00
9:53 pm 21:53 Mostly Cloudy 21 -6.1 19 -7.2 92 92 WNW 7 11 29.76 1008 10 16 0.00 0.00
10:03 pm 22:03 Partly Cloudy 20 -6.7 18 -7.8 92 92 WNW 7 11 29.80 1009 10 16 0.00 0.00
10:53 pm 22:53 Clear 17 -8.3 15 -9.4 92 92 WNW 7 11 29.79 1009 10 16 0.00 0.00
11:53 pm 23:53 Clear 15 -9.4 14 -10 95 95 SW 5 7 29.78 1008 7 11 0.00 0.00

Powered by AerisWeather